EHI
1 1 0 0 0 0 0 0 0 0 0 0 0 0 0 0 0 0 0 0 1 1 1 0 0 0 0 0 1 2 3 3 3 3 4 3 1 0 0 0 1 1 2 2 2 2 1 0 0
1 0 0 0 0 0 0 0 0 0 0 0 0 0 0 0 0 0 0 0 0 0 0 0 0 0 0 0 0 1 2 3 3 2 2 1 0 0 0 0 0 1 1 1 1 1 1 1 0
0 0 0 0 0 0 0 0 0 0 0 0 0 0 0 0 0 0 0 0 1 1 0 0 0 0 0 0 0 0 1 2 1 1 0 0 0 0 0 0 0 0 0 0 1 1 2 2 2
0 0 0 0 0 0 0 0 0 0 0 0 0 0 0 0 0 0 0 1 2 1 0 0 0 0 0 0 0 0 0 1 1 0 0 0 0 0 0 0 0 0 0 0 1 2 3 3 3
0 0 0 0 0 0 0 0 0 0 0 0 0 0 0 0 0 1 1 2 2 1 0 0 0 0 0 0 0 0 1 1 1 0 0 0 0 0 0 0 0 0 0 0 1 1 1 2 2
0 0 0 0 0 0 0 0 0 0 0 0 0 0 0 0 0 1 2 3 2 1 0 0 1 0 0 0 0 0 1 1 1 0 0 0 0 0 0 0 0 0 0 0 0 0 0 1 1
0 0 0 0 0 0 0 0 0 0 0 0 0 0 0 0 0 1 2 2 1 0 0 0 0 0 0 0 0 0 1 1 0 0 0 0 0 0 0 0 0 0 0 0 0 0 0 0 1
0 0 0 0 0 0 0 0 0 0 0 0 0 0 0 0 0 0 1 1 0 0 0 0 0 0 0 0 0 0 0 0 0 0 0 0 0 0 0 0 0 0 0 0 0 0 0 0 0
0 0 0 0 0 0 0 0 0 0 0 0 0 0 1 1 0 0 0 0 0 0 0 0 0 0 0 0 0 0 0 0 0 0 0 0 0 0 0 0 0 0 0 0 0 0 0 0 0
0 0 0 0 0 0 0 0 0 0 0 0 0 0 1 1 0 0 0 0 0 0 0 0 0 0 0 0 0 0 0 0 0 0 0 0 0 0 0 0 0 0 0 0 0 0 0 0 0
0 0 0 0 0 0 0 0 0 0 0 0 0 0 1 1 0 0 0 0 0 0 0 0 0 0 0 0 0 0 0 0 0 0 0 0 0 0 0 0 0 0 0 0 0 0 0 0 0
0 0 0 0 0 0 0 0 0 0 0 0 0 0 0 0 0 0 0 0 0 0 0 0 0 0 0 0 0 0 0 0 0 0 0 0 0 0 0 0 0 0 0 0 0 0 0 0 0
0 0 0 0 0 0 0 0 0 0 1 0 0 0 0 0 0 0 0 0 0 0 0 0 0 0 0 0 0 0 0 0 0 0 0 0 0 0 0 0 0 0 0 0 0 0 0 0 0
0 0 0 0 0 0 0 0 0 0 0 0 0 0 0 0 0 0 0 0 0 0 0 0 0 0 0 0 0 0 0 0 0 0 0 0 0 0 0 0 0 0 0 0 0 0 0 0 0
0 0 0 0 0 0 0 0 0 0 0 0 0 0 0 0 0 0 0 0 0 0 0 0 0 0 0 0 0 0 0 0 0 0 0 0 0 0 0 0 0 0 0 0 0 0 0 0 0
0 0 0 0 0 0 0 0 0 0 0 0 0 0 0 0 0 0 0 0 0 0 0 0 0 0 0 0 0 0 0 0 0 0 0 0 0 0 0 0 0 0 0 0 0 0 0 0 0
0 0 0 0 0 0 0 0 0 0 0 0 0 0 0 0 0 0 0 0 0 0 0 0 0 0 0 0 0 0 0 0 0 0 0 0 0 0 0 0 0 0 0 0 0 0 0 0 0
0 0 0 0 0 0 0 0 0 0 0 0 0 0 0 0 0 0 0 0 0 0 0 0 0 0 0 0 0 0 0 0 0 0 0 0 0 0 0 0 0 0 0 0 0 0 0 0 0
0 0 0 0 0 0 0 0 0 0 0 0 0 0 0 0 0 0 0 0 0 0 0 0 0 0 0 0 0 0 0 0 0 0 0 0 0 0 0 0 0 0 0 0 0 0 0 0 0
0 0 0 0 0 0 0 0 0 0 0 0 0 0 0 0 0 0 0 0 0 0 0 0 0 0 0 0 0 0 0 0 0 0 0 0 0 0 0 0 0 0 0 0 0 0 0 0 0
0 0 0 0 0 0 0 0 0 0 0 0 0 0 0 0 0 0 0 0 0 0 0 0 0 0 0 0 0 0 0 0 0 0 0 0 0 0 0 0 0 0 0 0 0 0 0 0 0
0 0 0 0 0 0 0 0 0 0 0 0 0 0 0 0 0 0 0 0 0 0 0 0 0 0 0 0 0 0 0 0 0 0 0 0 0 0 0 0 0 0 0 0 0 0 0 0 0
0 0 0 0 0 0 0 0 0 0 0 0 0 0 0 0 0 0 0 0 0 0 0 0 0 0 0 0 0 0 0 0 0 0 0 0 0 0 0 0 0 0 0 0 0 0 0 0 0
0 0 0 0 0 0 0 0 0 0 0 0 0 0 0 0 0 0 0 0 0 0 0 0 0 0 0 0 0 0 0 0 0 0 0 0 0 0 0 0 0 0 0 0 0 0 0 0 0
0 0 0 0 0 0 0 0 0 0 0 0 0 0 0 0 0 0 0 0 0 0 0 0 0 0 0 0 0 0 0 0 0 0 0 0 0 0 0 0 0 0 0 0 0 0 0 0 0
0 0 0 0 0 0 0 0 0 0 0 0 0 0 0 0 0 0 0 0 0 0 0 0 0 0 0 0 0 0 0 0 0 0 0 0 0 0 0 0 0 0 0 0 0 0 0 0 0
0 0 0 0 0 0 0 0 0 0 0 0 0 0 0 0 0 0 0 0 0 0 0 0 0 0 0 0 0 0 0 0 0 0 0 0 0 0 0 0 0 0 0 0 0 0 0 0 0
0 0 0 0 0 0 0 0 0 0 0 0 0 0 0 0 0 0 0 0 0 0 0 0 0 0 0 0 0 0 0 0 0 0 0 0 0 0 0 0 0 0 0 0 0 0 0 0 0
0 0 0 0 0 0 0 0 0 0 0 0 0 0 0 0 0 0 0 0 0 0 0 0 0 0 0 0 0 0 0 0 0 0 0 0 0 0 0 0 0 0 0 0 0 0 0 0 0
0 0 0 0 0 0 0 0 0 0 0 0 0 0 0 0 0 0 0 0 0 0 0 0 0 0 0 0 0 0 0 0 0 0 0 0 0 0 0 0 0 0 0 0 0 0 0 0 0
Wind_Speed
3 2 2 3 5 5 3 2 1 2 3 3 5 6 6 5 3 4 0 2 4 3 3 6 9 10 10 10 11 11 11 11 11 10 10 9 8 8 8 7 7 7 6 6 6 5 5 5 5
1 1 3 4 5 4 2 1 1 2 4 4 5 6 6 5 4 4 2 3 4 4 4 5 9 10 10 10 10 10 10 10 10 9 9 8 8 7 7 7 7 6 6 6 5 5 5 5 5
1 2 3 4 4 3 1 0 2 3 3 3 4 5 5 3 3 3 3 5 5 4 4 5 9 9 9 9 9 9 10 9 9 9 8 8 7 7 6 6 6 6 6 6 5 5 5 5 6
2 4 4 5 3 0 1 1 2 3 3 4 4 5 4 2 3 4 6 6 5 4 3 4 8 9 9 9 9 9 8 8 8 8 8 7 7 6 6 5 5 5 5 5 5 6 6 6 6
3 4 5 4 2 1 1 1 2 3 3 4 4 5 3 3 5 7 7 6 6 4 3 3 7 8 8 8 8 8 8 7 7 7 7 6 6 6 5 5 5 5 5 6 6 6 6 6 6
4 4 5 2 2 2 2 1 3 5 4 4 5 4 2 1 5 6 6 5 4 4 3 3 6 7 7 7 7 7 7 7 7 7 7 7 6 6 6 5 5 5 5 6 6 6 6 7 7
4 4 3 3 2 2 2 2 3 4 4 3 4 4 2 1 3 5 5 4 4 4 3 3 3 4 5 5 6 6 6 6 6 6 6 6 7 7 7 7 6 6 6 6 6 6 6 7 7
3 4 3 2 2 1 1 2 3 4 4 3 3 6 4 3 4 5 5 4 4 3 2 2 3 3 3 3 4 5 6 6 7 7 7 7 8 8 8 7 7 7 7 7 7 7 7 7 7
3 5 2 2 3 1 1 3 3 3 5 3 3 3 4 7 8 6 4 3 2 1 1 1 1 2 2 2 4 5 6 7 7 6 8 7 4 4 5 7 8 8 8 8 9 8 8 8 7
4 4 2 2 3 3 2 3 2 4 5 4 5 5 7 8 7 6 4 3 2 1 0 0 0 1 2 2 3 3 3 4 4 4 4 3 3 3 5 7 9 9 9 9 9 9 8 6 3
3 4 2 1 2 3 3 3 3 6 3 3 6 7 7 7 6 5 3 2 2 1 0 1 1 1 1 1 2 2 2 2 3 4 4 3 3 3 4 3 4 5 7 5 6 6 4 3 3
3 2 3 2 2 3 3 3 4 4 2 3 6 8 7 7 5 5 4 2 1 1 1 1 1 1 1 2 2 2 2 2 2 3 3 3 2 3 3 2 3 3 2 3 3 3 4 4 4
3 2 2 3 5 5 5 5 4 4 3 6 8 7 6 5 4 3 3 2 2 1 1 1 2 1 1 2 1 2 1 2 2 2 3 3 2 2 2 2 3 3 3 3 3 3 4 4 4
3 4 4 4 5 3 7 4 4 2 4 6 7 5 4 3 3 3 3 2 2 1 1 1 2 2 2 2 1 1 1 1 2 2 3 3 2 2 2 3 3 3 3 2 2 3 3 2 2
3 5 6 4 3 2 5 5 2 1 4 5 4 3 3 2 3 3 3 3 3 2 2 2 2 2 2 2 1 1 2 2 2 2 3 3 2 2 2 2 3 3 3 3 3 3 3 3 3
3 5 4 4 3 2 5 2 1 1 5 4 2 2 2 1 2 2 2 3 3 3 2 1 2 3 2 2 2 2 2 2 2 2 2 3 3 3 2 2 2 3 3 3 2 3 3 3 3
5 3 2 2 3 3 4 2 2 2 5 3 2 2 2 2 2 1 2 3 3 3 3 2 3 2 2 2 2 2 2 2 2 2 2 3 3 3 2 2 2 3 3 3 3 2 2 2 4
3 3 3 2 2 4 4 1 2 2 4 3 2 1 2 1 1 1 1 2 3 3 3 3 2 3 3 3 3 3 3 3 2 2 2 3 3 3 2 2 3 3 3 3 3 3 2 2 3
4 5 4 1 1 4 4 2 2 1 2 2 1 2 2 1 0 1 2 3 3 3 3 2 2 2 2 2 1 1 1 2 2 2 3 3 3 3 3 2 3 3 2 3 3 2 3 3 3
5 5 3 3 3 4 4 3 1 1 1 2 3 3 3 1 1 2 2 3 3 2 1 1 1 2 2 1 1 1 0 1 1 2 3 3 3 3 3 2 2 3 2 4 3 2 2 2 3
2 4 5 4 3 4 3 3 2 1 1 1 1 2 2 3 3 2 2 2 2 1 1 1 1 1 1 2 2 2 2 2 3 3 3 4 4 3 2 2 2 2 2 2 3 2 1 2 2
1 3 5 5 4 2 2 0 3 1 1 1 1 2 2 2 2 2 2 2 1 0 1 2 2 2 2 2 2 2 1 1 1 2 2 4 4 4 3 2 2 2 2 2 3 2 1 0 2
3 4 5 4 4 2 2 2 5 0 2 4 4 3 3 3 3 3 3 2 1 1 2 2 3 3 3 3 3 2 1 0 1 2 3 4 4 4 4 3 2 2 2 2 3 2 1 0 1
6 6 6 5 4 1 2 3 5 5 6 5 4 4 4 4 3 3 2 2 2 2 2 3 3 3 3 3 3 2 1 1 2 3 3 3 3 3 4 3 3 3 2 3 2 2 2 1 2
5 6 4 4 3 3 1 2 8 5 5 7 8 7 5 4 4 4 3 3 2 2 2 3 3 2 2 3 2 2 1 1 1 2 2 3 3 3 4 4 3 3 3 3 2 2 3 2 2
4 6 7 5 4 3 1 5 7 3 2 4 5 5 5 4 4 4 4 3 3 2 2 3 3 2 2 2 2 2 1 1 1 1 1 2 2 3 4 4 3 4 4 3 2 2 3 2 2
6 3 5 6 2 0 4 5 6 1 2 4 5 5 6 5 5 4 4 3 3 3 2 2 3 2 1 1 1 2 2 1 1 2 2 2 3 3 4 4 4 4 4 3 3 2 3 3 3
5 7 5 5 4 2 4 4 6 6 7 7 7 8 6 5 5 5 4 3 3 2 2 2 2 2 1 1 1 1 1 1 1 2 3 3 3 4 4 4 4 4 4 4 3 3 3 3 3
4 4 4 4 4 5 3 8 7 8 10 12 11 9 9 8 7 6 4 3 3 3 2 2 2 2 1 1 1 2 2 2 2 2 3 3 3 4 4 4 4 4 4 4 3 3 4 4 4
5 7 7 5 4 4 3 9 3 5 7 9 10 9 8 7 6 5 5 4 3 3 2 2 2 2 1 1 1 1 2 2 2 3 3 3 3 4 4 4 4 4 4 4 4 4 4 4 4
Wind_Direction
338 57 73 53 53 52 50 7 47 65 61 54 65 74 76 57 70 111 339 112 112 99 89 97 99 98 98 97 93 91 90 88 87 85 84 82 80 78 75 70 67 65 61 57 53 49 42 38 34
52 77 53 56 75 71 23 359 63 81 132 135 82 72 70 63 66 99 109 125 111 102 90 99 102 96 95 94 91 89 87 85 85 84 82 80 78 75 70 65 62 57 54 51 45 37 28 25 22
74 49 70 66 81 125 127 32 104 88 111 105 80 62 74 82 96 123 148 131 110 99 90 104 103 98 95 93 91 88 85 83 82 81 79 75 73 70 66 62 57 52 47 44 36 27 23 19 14
72 46 54 68 79 81 141 126 113 108 69 57 93 72 59 62 131 138 132 124 112 99 87 103 104 99 96 92 89 86 83 81 78 74 70 64 59 58 54 50 47 42 35 32 24 11 7 4 2
60 73 64 60 54 17 19 86 87 86 68 61 80 82 52 15 99 119 126 124 120 108 90 98 106 100 95 91 87 84 81 77 73 67 59 51 43 38 34 26 23 25 21 15 8 359 354 351 349
57 65 81 87 42 12 8 29 86 81 88 85 78 82 54 78 122 132 126 119 119 117 95 83 99 99 94 87 81 76 72 67 60 52 44 35 30 24 17 14 9 7 5 0 356 352 349 347 344
97 91 107 119 84 39 52 44 93 106 98 89 106 94 89 142 147 128 113 105 99 92 82 58 55 61 68 69 65 60 55 49 44 41 34 25 21 16 12 7 3 1 0 0 357 351 348 346 346
107 98 91 97 110 89 19 47 67 93 99 98 101 125 161 189 132 105 92 87 85 79 73 64 52 48 40 32 37 42 40 37 34 31 29 26 21 14 10 4 0 4 9 10 8 2 359 358 356
83 79 120 165 147 135 55 74 52 53 87 67 67 125 144 126 115 107 95 78 84 95 65 69 55 39 29 15 29 30 30 31 31 23 25 27 14 8 7 7 8 7 9 10 10 8 9 13 8
85 110 178 189 153 136 103 91 100 82 69 67 72 77 102 117 126 134 142 154 158 183 238 118 83 33 18 19 35 20 25 25 26 23 25 23 17 13 22 13 16 13 13 12 12 16 18 19 4
94 135 144 60 126 116 100 71 60 106 95 146 142 136 126 131 139 150 158 159 171 179 189 137 133 54 35 25 28 25 20 20 19 23 28 29 26 18 21 16 11 8 12 9 6 10 11 9 359
90 85 120 91 91 93 102 92 75 83 136 152 143 138 136 145 158 167 167 155 127 121 150 99 113 93 50 47 41 39 30 21 20 16 26 39 33 22 13 17 4 5 359 357 1 358 358 0 356
89 88 84 84 76 89 88 81 95 66 65 99 112 119 136 148 154 148 135 127 117 122 131 111 113 107 81 67 49 58 40 34 27 23 27 44 49 27 12 8 7 1 356 357 352 353 356 0 354
107 91 75 64 68 75 92 64 74 64 85 101 111 127 139 145 148 123 122 135 140 141 120 87 91 105 102 87 73 63 54 46 37 30 27 39 50 40 24 12 4 356 350 347 347 347 350 347 347
89 81 54 34 48 68 90 50 45 83 109 110 116 127 139 154 136 143 156 154 152 137 114 112 114 92 98 94 80 71 57 52 40 26 23 30 40 39 33 19 1 346 347 356 360 356 357 357 356
62 61 56 0 25 42 99 110 339 81 119 121 124 129 135 125 135 153 153 144 138 125 117 106 97 93 87 79 69 58 52 48 35 24 20 21 29 34 32 24 359 343 352 3 2 2 358 354 352
50 95 104 15 19 60 96 129 337 90 124 127 133 141 129 93 68 129 144 142 136 135 126 97 79 82 78 70 62 55 50 42 24 21 18 10 20 27 32 21 354 352 2 4 358 11 0 345 342
144 129 111 94 17 77 88 70 8 68 126 136 137 133 128 132 220 179 123 122 122 114 106 98 81 75 78 68 56 45 39 26 18 17 7 6 8 11 19 13 2 6 10 1 0 353 352 335 328
131 116 102 67 60 86 90 71 6 43 105 113 129 153 160 187 339 71 88 97 102 90 93 98 97 84 80 67 66 56 23 356 355 356 357 360 2 5 11 6 360 6 8 351 351 353 354 349 344
111 106 100 68 62 103 96 50 3 46 164 173 174 181 180 148 63 60 76 80 89 98 111 116 115 103 91 85 105 110 101 340 327 335 352 358 356 355 3 4 348 350 354 357 1 10 359 348 9
111 151 154 139 75 50 89 14 350 343 48 86 136 170 173 166 159 138 105 86 84 80 126 141 135 115 100 94 79 54 38 16 9 359 351 343 341 339 341 346 346 348 357 342 340 353 16 343 345
172 176 141 127 102 18 80 116 292 282 323 283 211 166 179 174 155 147 131 115 123 130 87 93 103 92 81 91 88 88 84 24 313 317 322 330 344 343 339 335 338 340 342 332 325 352 329 357 330
150 106 102 103 106 64 30 114 283 327 235 237 223 198 188 175 164 158 159 163 134 97 95 91 90 73 61 73 85 87 69 346 324 335 340 340 340 343 344 340 337 331 322 319 326 336 330 271 255
120 80 63 52 66 24 242 154 267 226 214 211 206 197 184 169 151 143 136 116 93 84 86 88 90 67 56 67 68 79 67 16 5 350 343 339 335 335 343 343 339 323 316 311 311 312 311 284 263
93 98 60 21 15 259 229 187 248 241 213 192 189 188 178 163 149 143 136 127 118 111 101 96 96 71 55 64 55 50 48 47 21 343 337 340 339 331 331 343 334 325 317 312 311 313 308 296 278
160 138 151 174 207 268 284 234 254 265 217 169 159 160 156 156 156 158 159 152 147 136 118 109 107 89 61 62 41 33 36 45 13 358 345 328 311 304 320 336 333 326 328 331 326 318 309 306 295
138 161 155 127 138 227 271 280 297 127 146 152 152 157 171 170 163 160 153 151 152 149 146 143 130 107 61 53 50 28 20 26 11 353 350 335 326 328 337 343 342 338 338 335 334 328 319 320 307
142 144 111 121 148 232 283 266 246 218 205 189 182 183 184 174 167 163 159 158 155 151 142 123 129 137 131 72 66 58 17 6 9 14 359 346 340 343 345 348 346 345 346 345 343 331 324 334 321
127 120 114 117 149 156 245 268 228 210 197 192 193 188 182 180 177 173 168 165 155 136 123 116 113 109 90 72 59 43 17 14 23 15 355 347 346 350 351 345 347 345 344 345 348 338 336 335 328
166 167 150 153 200 175 183 266 279 219 200 188 186 183 180 178 175 168 162 155 148 142 135 125 123 121 127 104 78 52 30 32 27 4 347 349 349 348 347 347 351 347 345 342 341 336 339 333 328